| time (UTC) | temp F | wind direction | speed MPH | gust MPH | rain 1hr in | rain 24hr in | rain mn in | humidity % | barometer mb |
| 20260505035626 | 58 | 221 | 4.0 | 7.0 | 0.00 | 0.00 | 0.00 | 85 | 997.9 |
| 20260505034857 | 58 | 211 | 5.0 | 9.0 | 0.00 | 0.00 | 0.00 | 85 | 997.9 |
| 20260505034351 | 58 | 220 | 5.0 | 10.0 | 0.00 | 0.00 | 0.00 | 85 | 997.9 |
| 20260505033844 | 58 | 206 | 6.0 | 10.0 | 0.00 | 0.00 | 0.00 | 84 | 997.9 |
| 20260505033336 | 58 | 215 | 5.0 | 12.0 | 0.00 | 0.00 | 0.00 | 84 | 997.9 |
| 20260505032829 | 58 | 226 | 5.0 | 12.0 | 0.00 | 0.00 | 0.00 | 83 | 997.9 |
| 20260505032323 | 59 | 218 | 5.0 | 10.0 | 0.00 | 0.00 | 0.00 | 83 | 997.9 |
| 20260505032040 | 59 | 221 | 5.0 | 10.0 | 0.00 | 0.00 | 0.00 | 82 | 997.6 |
| 20260505031530 | 59 | 200 | 5.0 | 10.0 | 0.00 | 0.00 | 0.00 | 82 | 997.6 |
| 20260505031026 | 59 | 182 | 4.0 | 10.0 | 0.00 | 0.00 | 0.00 | 82 | 997.6 |
| 20260505030252 | 59 | 204 | 3.0 | 10.0 | 0.00 | 0.00 | 0.00 | 81 | 997.3 |
| 20260505025741 | 59 | 215 | 3.0 | 7.0 | 0.00 | 0.00 | 0.00 | 81 | 997.3 |
| 20260505025227 | 59 | 228 | 3.0 | 8.0 | 0.00 | 0.00 | 0.00 | 81 | 997.3 |
| 20260505024941 | 59 | 239 | 2.0 | 7.0 | 0.00 | 0.00 | 0.00 | 82 | 997.4 |
| 20260505024202 | 58 | 165 | 2.0 | 6.0 | 0.00 | 0.00 | 0.00 | 83 | 997.4 |
| 20260505023649 | 58 | 168 | 2.0 | 6.0 | 0.00 | 0.00 | 0.00 | 83 | 997.4 |
| 20260505023138 | 58 | 141 | 2.0 | 6.0 | 0.00 | 0.00 | 0.00 | 82 | 997.5 |
| 20260505022626 | 58 | 182 | 2.0 | 6.0 | 0.00 | 0.00 | 0.00 | 82 | 997.5 |
| 20260505022113 | 59 | 152 | 3.0 | 7.0 | 0.00 | 0.00 | 0.00 | 82 | 997.5 |
| 20260505021609 | 58 | 177 | 3.0 | 7.0 | 0.00 | 0.00 | 0.00 | 82 | 997.0 |
| 20260505021058 | 59 | 186 | 3.0 | 6.0 | 0.00 | 0.00 | 0.00 | 82 | 997.0 |
| 20260505020552 | 59 | 151 | 3.0 | 7.0 | 0.00 | 0.00 | 0.00 | 82 | 997.0 |
| 20260505020042 | 59 | 197 | 5.0 | 8.0 | 0.00 | 0.00 | 0.00 | 81 | 997.0 |
| 20260505015538 | 59 | 207 | 5.0 | 14.0 | 0.00 | 0.00 | 0.00 | 81 | 997.0 |
| 20260505015515 | 59 | 228 | 6.0 | 14.0 | 0.00 | 0.00 | 0.00 | 81 | 997.0 |
| 20260505014526 | 59 | 213 | 7.0 | 13.0 | 0.00 | 0.00 | 0.00 | 82 | 997.6 |
| 20260505014021 | 58 | 253 | 8.0 | 24.0 | 0.00 | 0.00 | 0.00 | 82 | 997.6 |
| 20260505013509 | 58 | 202 | 9.0 | 24.0 | 0.00 | 0.00 | 0.00 | 83 | 997.6 |
| 20260505013008 | 58 | 243 | 11.0 | 26.0 | 0.00 | 0.00 | 0.00 | 83 | 998.0 |
| 20260505012729 | 58 | 223 | 10.0 | 26.0 | 0.00 | 0.00 | 0.00 | 84 | 998.0 |
| 20260505011956 | 58 | 247 | 12.0 | 27.0 | 0.00 | 0.00 | 0.00 | 83 | 998.0 |
| 20260505011450 | 59 | 243 | 10.0 | 27.0 | 0.00 | 0.00 | 0.00 | 82 | 996.9 |
| 20260505010940 | 59 | 215 | 6.0 | 19.0 | 0.00 | 0.00 | 0.00 | 81 | 996.9 |
| 20260505010438 | 60 | 251 | 5.0 | 10.0 | 0.00 | 0.00 | 0.00 | 80 | 996.7 |
| 20260505010149 | 60 | 233 | 5.0 | 9.0 | 0.00 | 0.00 | 0.00 | 81 | 996.7 |
| 20260505005426 | 60 | 201 | 5.0 | 12.0 | 0.00 | 0.00 | 0.00 | 83 | 996.7 |
| 20260505005139 | 60 | 171 | 7.0 | 13.0 | 0.00 | 0.00 | 0.00 | 83 | 996.3 |
| 20260505004415 | 60 | 208 | 8.0 | 19.0 | 0.00 | 0.00 | 0.00 | 82 | 996.3 |
| 20260505003909 | 61 | 178 | 6.0 | 19.0 | 0.00 | 0.00 | 0.00 | 81 | 996.3 |
| 20260505003359 | 63 | 244 | 4.0 | 13.0 | 0.00 | 0.00 | 0.00 | 78 | 996.1 |
| 20260505002857 | 65 | 281 | 5.0 | 13.0 | 0.00 | 0.00 | 0.00 | 77 | 996.1 |
| 20260505002351 | 66 | 276 | 5.0 | 12.0 | 0.00 | 0.00 | 0.00 | 74 | 996.1 |
| 20260505001839 | 67 | 286 | 7.0 | 17.0 | 0.00 | 0.00 | 0.00 | 72 | 996.0 |
| 20260505001338 | 68 | 252 | 7.0 | 17.0 | 0.00 | 0.00 | 0.00 | 70 | 996.0 |
| 20260505000832 | 68 | 306 | 6.0 | 14.0 | 0.00 | 0.00 | 0.00 | 70 | 996.0 |
| 20260505000544 | 69 | 292 | 7.0 | 18.0 | 0.00 | 0.00 | 0.00 | 69 | 994.7 |
| 20260504235821 | 69 | 224 | 7.0 | 18.0 | 0.00 | 0.00 | 0.00 | 69 | 994.7 |
| 20260504235314 | 69 | 232 | 7.0 | 14.0 | 0.00 | 0.00 | 0.00 | 68 | 994.7 |
| 20260504234808 | 69 | 201 | 8.0 | 15.0 | 0.00 | 0.00 | 0.00 | 67 | 995.1 |
| 20260504234301 | 68 | 213 | 9.0 | 23.0 | 0.00 | 0.00 | 0.00 | 67 | 995.1 |
| 20260504233756 | 67 | 209 | 8.0 | 23.0 | 0.00 | 0.00 | 0.00 | 70 | 995.1 |
| 20260504233246 | 68 | 184 | 8.0 | 15.0 | 0.00 | 0.00 | 0.00 | 70 | 994.9 |
| 20260504233006 | 68 | 236 | 7.0 | 15.0 | 0.00 | 0.00 | 0.00 | 69 | 994.9 |
| 20260504232237 | 67 | 238 | 9.0 | 21.0 | 0.00 | 0.00 | 0.00 | 72 | 994.9 |
| 20260504231727 | 67 | 186 | 11.0 | 27.0 | 0.00 | 0.00 | 0.00 | 71 | 994.8 |
| 20260504231225 | 69 | 229 | 9.0 | 27.0 | 0.00 | 0.00 | 0.00 | 69 | 994.8 |
| 20260504230719 | 71 | 199 | 6.0 | 12.0 | 0.00 | 0.00 | 0.00 | 66 | 994.8 |
| 20260504230432 | 71 | 226 | 6.0 | 18.0 | 0.00 | 0.00 | 0.00 | 64 | 995.7 |
| 20260504225659 | 70 | 208 | 4.0 | 18.0 | 0.00 | 0.00 | 0.00 | 65 | 995.7 |
| 20260504225424 | 70 | 252 | 3.0 | 7.0 | 0.00 | 0.00 | 0.00 | 64 | 995.7 |
| 20260504224923 | 72 | 245 | 4.0 | 10.0 | 0.00 | 0.00 | 0.00 | 60 | 995.1 |
| 20260504224159 | 74 | 273 | 6.0 | 13.0 | 0.00 | 0.00 | 0.00 | 56 | 995.1 |
| 20260504223700 | 75 | 269 | 9.0 | 22.0 | 0.00 | 0.00 | 0.00 | 54 | 995.1 |
| 20260504223204 | 75 | 247 | 11.0 | 23.0 | 0.00 | 0.00 | 0.00 | 53 | 994.9 |
| 20260504222700 | 75 | 232 | 10.0 | 23.0 | 0.00 | 0.00 | 0.00 | 53 | 994.9 |
| 20260504222159 | 75 | 217 | 10.0 | 21.0 | 0.00 | 0.00 | 0.00 | 53 | 994.9 |
| 20260504221659 | 75 | 223 | 9.0 | 21.0 | 0.00 | 0.00 | 0.00 | 53 | 995.2 |
| 20260504221416 | 75 | 215 | 8.0 | 21.0 | 0.00 | 0.00 | 0.00 | 52 | 995.2 |
| 20260504220642 | 76 | 227 | 9.0 | 17.0 | 0.00 | 0.00 | 0.00 | 52 | 995.2 |
| 20260504220132 | 76 | 202 | 10.0 | 20.0 | 0.00 | 0.00 | 0.00 | 51 | 995.2 |
| 20260504215626 | 76 | 215 | 11.0 | 25.0 | 0.00 | 0.00 | 0.00 | 49 | 995.2 |
| 20260504215119 | 76 | 248 | 11.0 | 25.0 | 0.00 | 0.00 | 0.00 | 48 | 995.2 |
| 20260504214833 | 76 | 207 | 11.0 | 25.0 | 0.00 | 0.00 | 0.00 | 48 | 995.1 |
| 20260504214326 | 77 | 231 | 12.0 | 25.0 | 0.00 | 0.00 | 0.00 | 47 | 995.1 |
| 20260504213824 | 78 | 222 | 12.0 | 24.0 | 0.00 | 0.00 | 0.00 | 47 | 995.1 |
| 20260504213056 | 78 | 230 | 11.0 | 23.0 | 0.00 | 0.00 | 0.00 | 46 | 995.4 |
| 20260504212546 | 78 | 200 | 11.0 | 23.0 | 0.00 | 0.00 | 0.00 | 46 | 995.4 |
| 20260504212306 | 78 | 227 | 12.0 | 23.0 | 0.00 | 0.00 | 0.00 | 46 | 995.4 |
| 20260504211538 | 78 | 199 | 12.0 | 23.0 | 0.00 | 0.00 | 0.00 | 47 | 995.6 |
| 20260504211032 | 78 | 187 | 11.0 | 21.0 | 0.00 | 0.00 | 0.00 | 49 | 995.6 |
| 20260504210526 | 78 | 175 | 10.0 | 27.0 | 0.00 | 0.00 | 0.00 | 47 | 995.6 |
| 20260504210020 | 78 | 238 | 12.0 | 27.0 | 0.00 | 0.00 | 0.00 | 45 | 995.9 |
| 20260504205515 | 78 | 196 | 12.0 | 24.0 | 0.00 | 0.00 | 0.00 | 47 | 995.9 |
| 20260504205009 | 78 | 227 | 11.0 | 22.0 | 0.00 | 0.00 | 0.00 | 47 | 995.9 |
| 20260504204501 | 79 | 169 | 12.0 | 28.0 | 0.00 | 0.00 | 0.00 | 47 | 995.7 |
| 20260504203955 | 79 | 201 | 12.0 | 28.0 | 0.00 | 0.00 | 0.00 | 47 | 995.7 |
| 20260504203450 | 79 | 211 | 11.0 | 22.0 | 0.00 | 0.00 | 0.00 | 43 | 995.9 |
| 20260504202939 | 79 | 220 | 11.0 | 22.0 | 0.00 | 0.00 | 0.00 | 42 | 995.9 |
| 20260504202656 | 80 | 189 | 9.0 | 21.0 | 0.00 | 0.00 | 0.00 | 42 | 995.9 |
| 20260504201931 | 79 | 248 | 9.0 | 18.0 | 0.00 | 0.00 | 0.00 | 42 | 996.1 |
| 20260504201425 | 79 | 213 | 10.0 | 18.0 | 0.00 | 0.00 | 0.00 | 41 | 996.1 |
| 20260504201136 | 79 | 225 | 9.0 | 18.0 | 0.00 | 0.00 | 0.00 | 41 | 996.1 |
| 20260504200415 | 78 | 239 | 9.0 | 18.0 | 0.00 | 0.00 | 0.00 | 38 | 996.4 |
| 20260504195904 | 78 | 241 | 10.0 | 20.0 | 0.00 | 0.00 | 0.00 | 43 | 996.4 |
| 20260504195402 | 78 | 212 | 9.0 | 20.0 | 0.00 | 0.00 | 0.00 | 42 | 996.4 |
| 20260504195124 | 79 | 213 | 9.0 | 23.0 | 0.00 | 0.00 | 0.00 | 38 | 996.4 |
| 20260504194359 | 79 | 233 | 8.0 | 23.0 | 0.00 | 0.00 | 0.00 | 38 | 996.4 |
| 20260504194122 | 79 | 210 | 7.0 | 23.0 | 0.00 | 0.00 | 0.00 | 40 | 996.4 |
| 20260504193359 | 78 | 197 | 8.0 | 23.0 | 0.00 | 0.00 | 0.00 | 40 | 996.4 |
| 20260504193122 | 79 | 235 | 10.0 | 25.0 | 0.00 | 0.00 | 0.00 | 38 | 996.4 |
| 20260504192355 | 78 | 255 | 11.0 | 25.0 | 0.00 | 0.00 | 0.00 | 39 | 996.4 |
| 20260504191854 | 78 | 240 | 10.0 | 29.0 | 0.00 | 0.00 | 0.00 | 40 | 996.4 |
| 20260504191354 | 79 | 263 | 10.0 | 29.0 | 0.00 | 0.00 | 0.00 | 39 | 996.4 |
| 20260504190854 | 79 | 271 | 10.0 | 21.0 | 0.00 | 0.00 | 0.00 | 41 | 996.4 |
| 20260504190352 | 78 | 209 | 10.0 | 26.0 | 0.00 | 0.00 | 0.00 | 40 | 996.7 |
| 20260504190117 | 78 | 237 | 11.0 | 26.0 | 0.00 | 0.00 | 0.00 | 41 | 996.7 |
| 20260504185351 | 78 | 225 | 11.0 | 21.0 | 0.00 | 0.00 | 0.00 | 41 | 996.7 |
| 20260504185114 | 78 | 187 | 10.0 | 21.0 | 0.00 | 0.00 | 0.00 | 43 | 996.9 |
| 20260504184350 | 77 | 262 | 11.0 | 22.0 | 0.00 | 0.00 | 0.00 | 43 | 996.9 |
| 20260504183851 | 77 | 221 | 11.0 | 22.0 | 0.00 | 0.00 | 0.00 | 44 | 996.9 |
| 20260504183610 | 77 | 222 | 10.0 | 19.0 | 0.00 | 0.00 | 0.00 | 45 | 997.0 |
| 20260504182847 | 77 | 228 | 10.0 | 20.0 | 0.00 | 0.00 | 0.00 | 47 | 997.0 |
| 20260504182338 | 77 | 282 | 10.0 | 20.0 | 0.00 | 0.00 | 0.00 | 44 | 997.0 |
| 20260504182324 | 76 | 212 | 10.0 | 22.0 | 0.00 | 0.00 | 0.00 | 44 | 997.0 |
| 20260504181338 | 76 | 235 | 10.0 | 22.0 | 0.00 | 0.00 | 0.00 | 45 | 997.0 |
| 20260504180838 | 76 | 232 | 10.0 | 23.0 | 0.00 | 0.00 | 0.00 | 45 | 997.0 |
| 20260504180339 | 76 | 232 | 10.0 | 23.0 | 0.00 | 0.00 | 0.00 | 46 | 997.3 |
| 20260504180105 | 76 | 204 | 11.0 | 22.0 | 0.00 | 0.00 | 0.00 | 47 | 997.3 |
| 20260504175338 | 76 | 294 | 10.0 | 19.0 | 0.00 | 0.00 | 0.00 | 48 | 997.3 |
| 20260504174841 | 75 | 232 | 9.0 | 16.0 | 0.00 | 0.00 | 0.00 | 51 | 997.5 |
| 20260504174340 | 75 | 248 | 9.0 | 23.0 | 0.00 | 0.00 | 0.00 | 51 | 997.5 |
| 20260504174101 | 74 | 221 | 9.0 | 23.0 | 0.00 | 0.00 | 0.00 | 52 | 997.5 |
| 20260504173333 | 74 | 236 | 9.0 | 17.0 | 0.00 | 0.00 | 0.00 | 54 | 997.9 |
| 20260504172822 | 74 | 220 | 9.0 | 20.0 | 0.00 | 0.00 | 0.00 | 53 | 997.9 |
| 20260504172321 | 73 | 207 | 9.0 | 20.0 | 0.00 | 0.00 | 0.00 | 54 | 997.9 |
| 20260504171815 | 74 | 234 | 8.0 | 15.0 | 0.00 | 0.00 | 0.00 | 53 | 998.0 |
| 20260504171310 | 74 | 238 | 8.0 | 15.0 | 0.00 | 0.00 | 0.00 | 53 | 998.0 |
| 20260504170803 | 73 | 271 | 9.0 | 21.0 | 0.00 | 0.00 | 0.00 | 52 | 998.0 |
| 20260504170253 | 73 | 259 | 9.0 | 21.0 | 0.00 | 0.00 | 0.00 | 52 | 998.1 |
| 20260504160359 | 70 | 233 | 8.0 | 18.0 | 0.00 | 0.00 | 0.00 | 60 | 999.1 |
| 20260504151130 | 68 | 219 | 8.0 | 16.0 | 0.00 | 0.00 | 0.00 | 59 | 999.6 |
| 20260504150631 | 67 | 232 | 8.0 | 15.0 | 0.00 | 0.00 | 0.00 | 58 | 999.6 |
| 20260504150130 | 67 | 219 | 7.0 | 13.0 | 0.00 | 0.00 | 0.00 | 59 | 999.7 |
| 20260504141110 | 62 | 223 | 6.0 | 13.0 | 0.00 | 0.00 | 0.00 | 67 | 1000.2 |
| 20260504140831 | 62 | 225 | 5.0 | 13.0 | 0.00 | 0.00 | 0.00 | 67 | 1000.2 |
| 20260504140109 | 62 | 216 | 5.0 | 11.0 | 0.00 | 0.00 | 0.00 | 68 | 1000.4 |
| 20260504130752 | 56 | 211 | 4.0 | 8.0 | 0.00 | 0.00 | 0.00 | 76 | 1000.8 |
| 20260504110323 | 48 | 205 | 3.0 | 7.0 | 0.00 | 0.00 | 0.00 | 84 | 1001.1 |
| 20260504100321 | 47 | 186 | 3.0 | 7.0 | 0.00 | 0.00 | 0.00 | 84 | 1001.3 |
| 20260504090122 | 48 | 208 | 3.0 | 6.0 | 0.00 | 0.00 | 0.00 | 82 | 1001.3 |
| 20260504081526 | 49 | 215 | 4.0 | 7.0 | 0.00 | 0.00 | 0.00 | 80 | 1001.4 |
| 20260504081022 | 49 | 209 | 4.0 | 7.0 | 0.00 | 0.00 | 0.00 | 81 | 1001.4 |
| 20260504080516 | 49 | 215 | 3.0 | 7.0 | 0.00 | 0.00 | 0.00 | 81 | 1001.4 |
| 20260504050736 | 53 | 211 | 4.0 | 7.0 | 0.00 | 0.00 | 0.00 | 74 | 1002.8 |
| 20260504050230 | 53 | 232 | 4.0 | 7.0 | 0.00 | 0.00 | 0.00 | 73 | 1002.7 |
| 20260504045719 | 53 | 219 | 4.0 | 8.0 | 0.00 | 0.00 | 0.00 | 73 | 1002.7 |
| 20260504045215 | 54 | 216 | 3.0 | 8.0 | 0.00 | 0.00 | 0.00 | 72 | 1002.7 |
| 20260504044712 | 54 | 198 | 4.0 | 7.0 | 0.00 | 0.00 | 0.00 | 72 | 1002.8 |
| 20260504044212 | 54 | 226 | 3.0 | 7.0 | 0.00 | 0.00 | 0.00 | 72 | 1002.8 |
| 20260504043711 | 54 | 232 | 3.0 | 7.0 | 0.00 | 0.00 | 0.00 | 72 | 1002.8 |
| 20260504043212 | 54 | 207 | 3.0 | 7.0 | 0.00 | 0.00 | 0.00 | 72 | 1002.9 |
| 20260504042711 | 54 | 219 | 3.0 | 7.0 | 0.00 | 0.00 | 0.00 | 72 | 1002.9 |
| 20260504042435 | 54 | 209 | 3.0 | 7.0 | 0.00 | 0.00 | 0.00 | 72 | 1002.9 |
| 20260504041712 | 54 | 208 | 3.0 | 4.0 | 0.00 | 0.00 | 0.00 | 72 | 1003.1 |
| 20260504041211 | 54 | 235 | 2.0 | 5.0 | 0.00 | 0.00 | 0.00 | 72 | 1003.1 |
| 20260504040711 | 54 | 221 | 2.0 | 5.0 | 0.00 | 0.00 | 0.00 | 72 | 1003.1 |
| 20260504040207 | 55 | 215 | 2.0 | 5.0 | 0.00 | 0.00 | 0.00 | 72 | 1003.3 |